Weather History for KPSC - May, 2014

Change the Weather History Date:

Thursday, May 29, 2014

  Actual Average Record
Temperature  
Mean Temperature 62 °F 64 °F  
Max Temperature 75 °F 79 °F 96 °F (2009)
Min Temperature 48 °F 50 °F 39 °F (2001)
Degree Days  
Heating Degree Days 3 3  
Month to date heating degree days 92 160  
Since 1 July heating degree days 5205 4984  
Cooling Degree Days 0 2  
Month to date cooling degree days 28 28  
Year to date cooling degree days 28 29  
Growing Degree Days 10 (Base 50)    
Moisture  
Dew Point 39 °F    
Average Humidity 50    
Maximum Humidity 80    
Minimum Humidity 20    
Precipitation  
Precipitation 0.00 in 0.03 in 0.52 in (1988)
Month to date precipitation 0.29 0.67  
Year to date precipitation 2.38 4.19  
Snow  
Snow 0.00 in - - ()
Snow Depth 0.00 in    
Sea Level Pressure  
Sea Level Pressure 30.13 in    
Wind  
Wind Speed 8 mph (South)    
Max Wind Speed 18 mph    
Max Gust Speed 25 mph    
Visibility 10 miles    
Events      
T = Trace of Precipitation, MM = Missing Value Source: NWS Daily Summary

Daily Weather History Graph

Daily Weather History Graph

Search for Another Location

Airport or City:

Trip Planner

Search our weather history database for the weather conditions in past years. The results will help you decide how hot, cold, wet, or windy it might be!

Date:

Astronomy

May. 29, 2014 Rise Set
Actual Time 5:10 AM PDT 8:38 PM PDT
Civil Twilight 4:32 AM PDT 9:15 PM PDT
Nautical Twilight 3:43 AM PDT 10:05 PM PDT
Astronomical Twilight 2:39 AM PDT 11:09 PM PDT
Moon 6:10 AM PDT (5/29) 9:29 PM PDT (5/29)
Length of Visible Light 16h 42m
Length of Day
15h 28m
New Moon, 1% of the Moon is Illuminated
May 29
New Moon
Jun 5
First Quarter
Jun 12
Full
Jun 19
Last Quarter
Jun 27
New

Hourly Weather History & Observations

Time (PDT) Temp. Dew Point Humidity Pressure Visibility Wind Dir Wind Speed Gust Speed Precip Events Conditions
1:53 AM 52.0 °F 41.0 °F 66% 30.13 in 10.0 mi North - - N/A   Clear
2:53 AM 52.0 °F 42.1 °F 69% 30.14 in 10.0 mi North - - N/A   Clear
3:53 AM 50.0 °F 42.1 °F 74% 30.15 in 10.0 mi North - - N/A   Clear
4:53 AM 48.9 °F 42.1 °F 77% 30.16 in 10.0 mi North - - N/A   Clear
5:53 AM 50.0 °F 43.0 °F 77% 30.18 in 10.0 mi North - - N/A   Clear
6:53 AM 54.0 °F 43.0 °F 66% 30.18 in 10.0 mi SW 12.7 mph - N/A   Clear
7:53 AM 55.9 °F 42.1 °F 60% 30.19 in 10.0 mi WSW 9.2 mph - N/A   Clear
8:53 AM 59.0 °F 42.1 °F 53% 30.20 in 10.0 mi SSW 11.5 mph - N/A   Clear
9:53 AM 62.1 °F 37.9 °F 41% 30.19 in 10.0 mi SSW 10.4 mph - N/A   Clear
10:53 AM 64.0 °F 39.0 °F 40% 30.19 in 10.0 mi South 6.9 mph - N/A   Clear
11:53 AM 66.9 °F 39.9 °F 37% 30.17 in 10.0 mi WSW 8.1 mph - N/A   Partly Cloudy
12:53 PM 70.0 °F 37.9 °F 31% 30.16 in 10.0 mi SW 13.8 mph 20.7 mph N/A   Clear
3:53 PM 72.0 °F 37.0 °F 28% 30.10 in 10.0 mi SSW 4.6 mph - N/A   Clear
4:53 PM 73.9 °F 35.1 °F 24% 30.08 in 10.0 mi Variable 5.8 mph - N/A   Clear
5:53 PM 73.9 °F 35.1 °F 24% 30.06 in 10.0 mi Variable 4.6 mph - N/A   Clear
6:53 PM 73.9 °F 33.1 °F 22% 30.05 in 10.0 mi Calm Calm - N/A   Clear
7:53 PM 73.0 °F 30.0 °F 20% 30.04 in 10.0 mi ESE 4.6 mph - N/A   Clear
8:53 PM 66.9 °F 39.0 °F 36% 30.05 in 10.0 mi ESE 5.8 mph - N/A   Clear
9:53 PM 60.1 °F 39.9 °F 47% 30.07 in 10.0 mi Calm Calm - N/A   Clear
10:53 PM 57.0 °F 43.0 °F 59% 30.07 in 10.0 mi East 4.6 mph - N/A   Clear
11:53 PM 55.0 °F 42.1 °F 62% 30.07 in 10.0 mi East 4.6 mph - N/A   Clear